This is the latest recevied weather packets stored in our database for station/object KG0HG. If no packets are shown the sender has not sent any weather packets the latest 10 day(s).
| Time | Temp. | Humidity | Pressure | Rain* | Wind** | Luminosity | Snow |
|---|---|---|---|---|---|---|---|
| 1777710646 | 5° C | 79% | 1019.6 hPa | 0 mm | - | 0 W/m² | - |
| 1777710344 | 5.56° C | 78% | 1019.7 hPa | 0 mm | - | 0 W/m² | - |
| 1777710040 | 5.56° C | 78% | 1019.6 hPa | 0 mm | - | 0 W/m² | - |
| 1777709738 | 5.56° C | 76% | 1019.4 hPa | 0 mm | - | 0 W/m² | - |
| 1777709435 | 6.11° C | 75% | 1019.4 hPa | 0 mm | - | 0 W/m² | - |
| 1777709133 | 6.11° C | 73% | 1019.3 hPa | 0 mm | - | 0 W/m² | - |
| 1777708830 | 6.11° C | 72% | 1019.4 hPa | 0 mm | - | 0 W/m² | - |
| 1777708527 | 6.67° C | 71% | 1019.6 hPa | 0 mm | - | 0 W/m² | - |
| 1777708225 | 6.67° C | 70% | 1019.2 hPa | 0 mm | - | 0 W/m² | - |
| 1777707923 | 7.22° C | 69% | 1019.5 hPa | 0 mm | - | 0 W/m² | - |
| 1777707619 | 7.22° C | 67% | 1019.4 hPa | 0 mm | - | 0 W/m² | - |
| 1777707315 | 7.22° C | 66% | 1019.4 hPa | 0 mm | - | 0 W/m² | - |
| 1777707013 | 7.78° C | 64% | 1019.1 hPa | 0 mm | - | 0 W/m² | - |
| 1777706710 | 7.78° C | 63% | 1019.4 hPa | 0 mm | - | 0 W/m² | - |
| 1777706408 | 7.78° C | 64% | 1019.3 hPa | 0 mm | - | 0 W/m² | - |
| 1777706105 | 7.78° C | 61% | 1019.3 hPa | 0 mm | - | 0 W/m² | - |
| 1777705803 | 8.33° C | 61% | 1019.3 hPa | 0 mm | - | 0 W/m² | - |
| 1777705501 | 8.33° C | 61% | 1019.4 hPa | 0 mm | - | 0 W/m² | - |
| 1777705199 | 8.33° C | 59% | 1019.5 hPa | 0 mm | - | 0 W/m² | - |
| 1777704897 | 8.33° C | 58% | 1019.5 hPa | 0 mm | - | 0 W/m² | - |
| 1777704595 | 8.89° C | 57% | 1019.5 hPa | 0 mm | - | 0 W/m² | - |
| 1777704293 | 8.89° C | 57% | 1019.4 hPa | 0 mm | - | 0 W/m² | - |
| 1777703989 | 9.44° C | 55% | 1019.5 hPa | 0 mm | - | 0 W/m² | - |
| 1777703687 | 9.44° C | 53% | 1019.4 hPa | 0 mm | - | 0 W/m² | - |
| 1777703385 | 9.44° C | 53% | 1019.6 hPa | 0 mm | - | 0 W/m² | - |
* Rain latest hour (hover to see other rain measurements)
** Current wind speed in m/s (hover to see current wind gust speed)